Location: Newark
(56.0692°N, 115.8617°E)
Time: 12:10:56
(UTC+00:00)

Vanguard 2 Rocket - Pass Details

Date: 30 May 2020
Orbit: 556 x 3325 km, 32.9° (Epoch: 14 July)

Event Time Altitude Azimuth Distance (km) Brightness Sun altitude
Rises 08:05:52 0° 218° (SW) 4,329 11.0 35.7°
Reaches altitude 10° 08:09:21 10° 202° (SSW) 3,758 10.6 35.3°
Maximum altitude 08:16:20 21° 159° (SSE) 3,699 10.1 34.3°
Drops below altitude 10° 08:25:57 10° 119° (ESE) 5,379 10.5 33.0°
Sets 08:32:27 0° 107° (ESE) 6,831 10.9 32.1°
